| time (UTC) | temp F | wind direction | speed knots | gust knots | rain 1hr in | rain 24hr in | rain mn in | humidity % | barometer mb |
| 20260906191049 | 68 | 206 | 13.0 | 22.6 | 0.00 | 0.08 | 0.08 | 72 | 1013.4 |
| 20260906190552 | 68 | 183 | 9.6 | 17.4 | 0.00 | 0.08 | 0.08 | 72 | 1013.3 |
| 20260906190052 | 68 | 169 | 10.4 | 19.1 | 0.00 | 0.08 | 0.08 | 71 | 1013.5 |
| 20260906185552 | 68 | 216 | 12.2 | 19.1 | 0.00 | 0.08 | 0.08 | 72 | 1013.3 |
| 20260906184551 | 68 | 204 | 11.3 | 20.9 | 0.00 | 0.08 | 0.08 | 71 | 1013.4 |
| 20260906184051 | 68 | 171 | 12.2 | 20.9 | 0.00 | 0.08 | 0.08 | 71 | 1013.4 |
| 20260906183551 | 68 | 169 | 14.8 | 20.0 | 0.00 | 0.08 | 0.08 | 71 | 1013.2 |
| 20260906183051 | 68 | 197 | 10.4 | 26.9 | 0.00 | 0.08 | 0.08 | 71 | 1013.4 |
| 20260906182551 | 68 | 203 | 12.2 | 26.9 | 0.00 | 0.08 | 0.08 | 71 | 1013.3 |
| 20260906182052 | 68 | 189 | 7.0 | 13.9 | 0.00 | 0.08 | 0.08 | 71 | 1013.3 |
| 20260906181553 | 68 | 216 | 8.7 | 13.9 | 0.00 | 0.08 | 0.08 | 70 | 1013.2 |
| 20260906181051 | 68 | 183 | 7.8 | 14.8 | 0.00 | 0.08 | 0.08 | 70 | 1013.3 |
| 20260906180551 | 68 | 213 | 6.1 | 14.8 | 0.00 | 0.08 | 0.08 | 70 | 1013.2 |
| 20260906180052 | 68 | 206 | 5.2 | 15.6 | 0.00 | 0.08 | 0.08 | 70 | 1013.3 |
| 20260906175551 | 68 | 185 | 6.1 | 15.6 | 0.00 | 0.08 | 0.08 | 70 | 1013.5 |
| 20260906175052 | 68 | 224 | 6.1 | 13.0 | 0.00 | 0.08 | 0.08 | 70 | 1013.5 |
| 20260906174551 | 68 | 180 | 4.3 | 12.2 | 0.00 | 0.08 | 0.08 | 70 | 1013.4 |
| 20260906174053 | 68 | 204 | 5.2 | 12.2 | 0.00 | 0.08 | 0.08 | 70 | 1013.6 |
| 20260906173554 | 68 | 172 | 7.8 | 12.2 | 0.00 | 0.08 | 0.08 | 70 | 1013.6 |
| 20260906173051 | 68 | 192 | 5.2 | 15.6 | 0.00 | 0.08 | 0.08 | 69 | 1013.6 |
| 20260906172051 | 68 | 175 | 8.7 | 17.4 | 0.00 | 0.08 | 0.08 | 68 | 1013.8 |
| 20260906171051 | 68 | 204 | 11.3 | 19.1 | 0.00 | 0.08 | 0.08 | 68 | 1014.0 |
| 20260906170552 | 69 | 176 | 8.7 | 13.9 | 0.00 | 0.08 | 0.08 | 69 | 1013.9 |
| 20260906170054 | 69 | 220 | 7.0 | 19.1 | 0.00 | 0.08 | 0.08 | 69 | 1014.0 |
| 20260906165553 | 69 | 182 | 11.3 | 19.1 | 0.00 | 0.08 | 0.08 | 70 | 1014.0 |
| 20260906165051 | 69 | 227 | 9.6 | 20.0 | 0.00 | 0.08 | 0.08 | 70 | 1014.0 |
| 20260906164550 | 69 | 183 | 8.7 | 20.0 | 0.00 | 0.08 | 0.08 | 70 | 1013.9 |
| 20260906164051 | 69 | 183 | 10.4 | 20.0 | 0.00 | 0.08 | 0.08 | 69 | 1014.0 |
| 20260906163050 | 70 | 186 | 7.8 | 21.7 | 0.00 | 0.08 | 0.08 | 69 | 1014.0 |
| 20260906162551 | 71 | 195 | 12.2 | 21.7 | 0.00 | 0.08 | 0.08 | 68 | 1014.1 |
| 20260906162051 | 71 | 212 | 8.7 | 16.5 | 0.00 | 0.08 | 0.08 | 69 | 1014.0 |
| 20260906161551 | 71 | 183 | 9.6 | 17.4 | 0.00 | 0.08 | 0.08 | 69 | 1013.9 |
| 20260906161055 | 71 | 188 | 9.6 | 17.4 | 0.00 | 0.08 | 0.08 | 69 | 1014.1 |
| 20260906160551 | 71 | 138 | 5.2 | 16.5 | 0.00 | 0.08 | 0.08 | 70 | 1014.3 |
| 20260906160052 | 71 | 178 | 4.3 | 16.5 | 0.00 | 0.08 | 0.08 | 70 | 1014.4 |
| 20260906155551 | 71 | 195 | 11.3 | 16.5 | 0.00 | 0.08 | 0.08 | 70 | 1014.6 |
| 20260906155051 | 71 | 159 | 7.8 | 24.3 | 0.00 | 0.08 | 0.08 | 71 | 1014.6 |
| 20260906154553 | 71 | 148 | 9.6 | 25.2 | 0.00 | 0.08 | 0.08 | 71 | 1014.8 |
| 20260906154053 | 71 | 182 | 14.8 | 25.2 | 0.00 | 0.08 | 0.08 | 71 | 1014.8 |
| 20260906153551 | 70 | 217 | 13.0 | 20.9 | 0.00 | 0.08 | 0.08 | 70 | 1014.8 |
| 20260906153050 | 71 | 192 | 10.4 | 20.9 | 0.00 | 0.08 | 0.08 | 70 | 1014.9 |
| 20260906152550 | 71 | 227 | 7.8 | 22.6 | 0.00 | 0.08 | 0.08 | 70 | 1015.0 |
| 20260906152051 | 71 | 195 | 12.2 | 22.6 | 0.00 | 0.08 | 0.08 | 70 | 1015.0 |
| 20260906151539 | 71 | 219 | 7.8 | 18.2 | 0.00 | 0.08 | 0.08 | 71 | 1015.3 |
| 20260906150523 | 71 | 185 | 11.3 | 21.7 | 0.00 | 0.08 | 0.08 | 71 | 1015.2 |
| 20260906150022 | 70 | 196 | 8.7 | 22.6 | 0.00 | 0.08 | 0.08 | 73 | 1015.4 |
| 20260906145509 | 69 | 223 | 11.3 | 20.0 | 0.00 | 0.08 | 0.08 | 71 | 1015.4 |
| 20260906145005 | 69 | 189 | 10.4 | 22.6 | 0.00 | 0.08 | 0.08 | 71 | 1015.4 |
| 20260906144505 | 70 | 202 | 11.3 | 22.6 | 0.00 | 0.08 | 0.08 | 71 | 1015.4 |
| 20260906143502 | 68 | 180 | 14.8 | 19.1 | 0.00 | 0.08 | 0.08 | 75 | 1015.6 |
| 20260906143004 | 67 | 175 | 8.7 | 18.2 | 0.00 | 0.08 | 0.08 | 75 | 1015.5 |
| 20260906142504 | 67 | 193 | 9.6 | 20.0 | 0.00 | 0.08 | 0.08 | 75 | 1015.6 |
| 20260906142003 | 67 | 155 | 14.8 | 20.0 | 0.00 | 0.08 | 0.08 | 76 | 1015.8 |
| 20260906141504 | 67 | 182 | 8.7 | 20.9 | 0.00 | 0.08 | 0.08 | 75 | 1015.9 |
| 20260906141005 | 68 | 209 | 12.2 | 21.7 | 0.00 | 0.08 | 0.08 | 75 | 1015.9 |
| 20260906140505 | 68 | 182 | 14.8 | 21.7 | 0.00 | 0.08 | 0.08 | 76 | 1015.8 |
| 20260906135504 | 67 | 188 | 13.9 | 24.3 | 0.00 | 0.08 | 0.08 | 80 | 1016.0 |
| 20260906134955 | 67 | 195 | 14.8 | 24.3 | 0.00 | 0.08 | 0.08 | 80 | 1016.0 |
| 20260906134452 | 67 | 217 | 13.0 | 20.9 | 0.00 | 0.08 | 0.08 | 80 | 1016.2 |
| 20260906133933 | 66 | 178 | 12.2 | 19.1 | 0.00 | 0.08 | 0.08 | 84 | 1016.3 |
| 20260906133429 | 65 | 202 | 10.4 | 20.9 | 0.00 | 0.08 | 0.08 | 84 | 1016.6 |
| 20260906132909 | 64 | 185 | 13.0 | 20.9 | 0.01 | 0.08 | 0.08 | 84 | 1016.4 |
| 20260906132404 | 63 | 233 | 13.0 | 20.0 | 0.01 | 0.08 | 0.08 | 89 | 1016.6 |
| 20260906131905 | 62 | 178 | 11.3 | 17.4 | 0.01 | 0.08 | 0.08 | 89 | 1016.8 |
| 20260906130859 | 62 | 209 | 7.8 | 16.5 | 0.02 | 0.08 | 0.08 | 90 | 1016.9 |
| 20260906130351 | 61 | 207 | 10.4 | 18.2 | 0.02 | 0.08 | 0.08 | 90 | 1016.9 |
| 20260906125852 | 60 | 230 | 10.4 | 18.2 | 0.03 | 0.08 | 0.08 | 91 | 1016.7 |
| 20260906125352 | 60 | 210 | 11.3 | 18.2 | 0.04 | 0.08 | 0.08 | 92 | 1016.3 |
| 20260906124850 | 60 | 180 | 7.8 | 17.4 | 0.04 | 0.08 | 0.08 | 92 | 1016.4 |
| 20260906123832 | 60 | 173 | 12.2 | 18.2 | 0.04 | 0.08 | 0.08 | 91 | 1016.7 |
| 20260906123337 | 60 | 227 | 11.3 | 15.6 | 0.04 | 0.08 | 0.07 | 91 | 1016.8 |
| 20260906122809 | 60 | 212 | 9.6 | 18.2 | 0.03 | 0.07 | 0.07 | 91 | 1017.1 |
| 20260906122307 | 59 | 209 | 9.6 | 18.2 | 0.03 | 0.07 | 0.07 | 91 | 1017.2 |
| 20260906121257 | 59 | 254 | 9.6 | 19.1 | 0.02 | 0.06 | 0.06 | 90 | 1017.4 |
| 20260906120750 | 59 | 203 | 7.8 | 17.4 | 0.02 | 0.06 | 0.06 | 89 | 1017.4 |
| 20260906120249 | 59 | 183 | 7.8 | 17.4 | 0.02 | 0.06 | 0.05 | 89 | 1017.5 |
| 20260906115749 | 59 | 213 | 8.7 | 18.2 | 0.02 | 0.05 | 0.05 | 88 | 1017.5 |
| 20260906114733 | 59 | 188 | 10.4 | 19.1 | 0.02 | 0.04 | 0.04 | 88 | 1017.4 |
| 20260906114235 | 59 | 169 | 11.3 | 18.2 | 0.03 | 0.04 | 0.04 | 88 | 1017.6 |
| 20260906113232 | 59 | 179 | 12.2 | 19.1 | 0.04 | 0.04 | 0.04 | 87 | 1017.9 |
| 20260906112732 | 59 | 193 | 11.3 | 18.2 | 0.04 | 0.04 | 0.04 | 88 | 1017.9 |
| 20260906112231 | 59 | 221 | 11.3 | 19.1 | 0.04 | 0.04 | 0.04 | 88 | 1018.0 |
| 20260906111730 | 59 | 195 | 11.3 | 19.1 | 0.04 | 0.04 | 0.04 | 89 | 1018.1 |
| 20260906111231 | 59 | 227 | 7.8 | 14.8 | 0.04 | 0.04 | 0.04 | 89 | 1018.2 |
| 20260906110719 | 59 | 221 | 9.6 | 15.6 | 0.04 | 0.04 | 0.04 | 88 | 1018.2 |
| 20260906105706 | 59 | 202 | 10.4 | 20.0 | 0.03 | 0.03 | 0.03 | 86 | 1018.2 |
| 20260906105207 | 60 | 226 | 7.8 | 13.0 | 0.02 | 0.02 | 0.02 | 84 | 1018.3 |
| 20260906104703 | 60 | 228 | 7.0 | 20.9 | 0.02 | 0.02 | 0.02 | 82 | 1018.2 |
| 20260906104203 | 61 | 219 | 9.6 | 20.9 | 0.01 | 0.01 | 0.01 | 79 | 1018.3 |
| 20260906103650 | 62 | 298 | 10.4 | 19.1 | 0.00 | 0.00 | 0.00 | 78 | 1018.3 |
| 20260906103133 | 63 | 217 | 10.4 | 19.1 | 0.00 | 0.00 | 0.00 | 75 | 1018.3 |
| 20260906102633 | 63 | 264 | 8.7 | 26.1 | 0.00 | 0.00 | 0.00 | 71 | 1018.4 |
| 20260906102132 | 64 | 217 | 12.2 | 26.1 | 0.00 | 0.00 | 0.00 | 71 | 1018.4 |
| 20260906101622 | 64 | 189 | 7.0 | 18.2 | 0.00 | 0.00 | 0.00 | 71 | 1018.5 |
| 20260906101111 | 64 | 243 | 9.6 | 19.1 | 0.00 | 0.00 | 0.00 | 71 | 1018.5 |
| 20260906100610 | 64 | 202 | 9.6 | 20.9 | 0.00 | 0.00 | 0.00 | 71 | 1018.5 |
| 20260906100105 | 64 | 216 | 11.3 | 20.9 | 0.00 | 0.00 | 0.00 | 72 | 1018.4 |
| 20260906095606 | 63 | 221 | 11.3 | 20.0 | 0.00 | 0.00 | 0.00 | 72 | 1018.4 |
| 20260906094610 | 64 | 247 | 9.6 | 20.0 | 0.00 | 0.00 | 0.00 | 70 | 1018.5 |
| 20260906094106 | 64 | 216 | 8.7 | 21.7 | 0.00 | 0.00 | 0.00 | 67 | 1018.5 |
| 20260906093606 | 64 | 219 | 9.6 | 21.7 | 0.00 | 0.00 | 0.00 | 67 | 1018.6 |
| 20260906093104 | 65 | 175 | 7.8 | 16.5 | 0.00 | 0.00 | 0.00 | 68 | 1018.5 |
| 20260906092048 | 65 | 233 | 7.0 | 11.3 | 0.00 | 0.00 | 0.00 | 68 | 1018.5 |
| 20260906091548 | 65 | 166 | 5.2 | 13.0 | 0.00 | 0.00 | 0.00 | 68 | 1018.4 |
| 20260906091052 | 65 | 196 | 7.0 | 13.0 | 0.00 | 0.00 | 0.00 | 68 | 1018.5 |
| 20260906090549 | 65 | 207 | 7.8 | 13.0 | 0.00 | 0.00 | 0.00 | 66 | 1018.5 |
| 20260906090050 | 65 | 209 | 7.0 | 11.3 | 0.00 | 0.00 | 0.00 | 66 | 1018.5 |
| 20260906085550 | 65 | 228 | 7.0 | 12.2 | 0.00 | 0.00 | 0.00 | 66 | 1018.7 |
| 20260906085050 | 65 | 203 | 7.8 | 12.2 | 0.00 | 0.00 | 0.00 | 66 | 1018.7 |
| 20260906084550 | 65 | 214 | 5.2 | 14.8 | 0.00 | 0.00 | 0.00 | 66 | 1018.6 |
| 20260906083551 | 65 | 202 | 2.6 | 10.4 | 0.00 | 0.00 | 0.00 | 68 | 1018.7 |
| 20260906082053 | 62 | 231 | 2.6 | 9.6 | 0.00 | 0.00 | 0.00 | 72 | 1018.9 |
| 20260906081550 | 62 | 224 | 5.2 | 12.2 | 0.00 | 0.00 | 0.00 | 73 | 1018.8 |
| 20260906081052 | 62 | 183 | 6.1 | 13.0 | 0.00 | 0.00 | 0.00 | 73 | 1018.8 |
| 20260906080550 | 62 | 196 | 7.0 | 13.0 | 0.00 | 0.00 | 0.00 | 74 | 1018.9 |
| 20260906080053 | 62 | 159 | 5.2 | 12.2 | 0.00 | 0.00 | 0.00 | 74 | 1018.9 |
| 20260906075051 | 61 | 207 | 7.0 | 13.0 | 0.00 | 0.00 | 0.00 | 77 | 1019.1 |
| 20260906074549 | 60 | 247 | 4.3 | 7.8 | 0.00 | 0.00 | 0.00 | 77 | 1019.2 |
| 20260906074051 | 60 | 276 | 1.7 | 12.2 | 0.00 | 0.00 | 0.00 | 77 | 1019.3 |
| 20260906073548 | 60 | 159 | 4.3 | 12.2 | 0.00 | 0.00 | 0.00 | 77 | 1019.4 |
| 20260906073050 | 59 | 192 | 6.1 | 11.3 | 0.00 | 0.00 | 0.00 | 77 | 1019.4 |
| 20260906072051 | 59 | 199 | 7.0 | 12.2 | 0.00 | 0.00 | 0.00 | 77 | 1019.5 |
| 20260906071550 | 59 | 175 | 6.1 | 13.0 | 0.00 | 0.00 | 0.00 | 78 | 1019.5 |
| 20260906070552 | 59 | 221 | 8.7 | 13.9 | 0.00 | 0.00 | 0.00 | 79 | 1019.6 |
| 20260906070051 | 59 | 240 | 7.0 | 13.9 | 0.00 | 0.00 | 0.00 | 79 | 1019.5 |
| 20260906065551 | 58 | 195 | 7.8 | 13.9 | 0.00 | 0.00 | 0.00 | 79 | 1019.6 |
| 20260906064550 | 58 | 180 | 8.7 | 13.9 | 0.00 | 0.00 | 0.00 | 79 | 1019.7 |
| 20260906064050 | 58 | 144 | 7.8 | 13.9 | 0.00 | 0.00 | 0.00 | 79 | 1019.8 |
| 20260906063550 | 58 | 188 | 6.1 | 13.0 | 0.00 | 0.00 | 0.00 | 79 | 1019.9 |
| 20260906062556 | 58 | 180 | 5.2 | 15.6 | 0.00 | 0.00 | 0.00 | 79 | 1020.0 |
| 20260906062053 | 58 | 182 | 6.1 | 15.6 | 0.00 | 0.00 | 0.00 | 79 | 1020.0 |
| 20260906061550 | 58 | 185 | 10.4 | 15.6 | 0.00 | 0.00 | 0.00 | 80 | 1020.0 |
| 20260906061050 | 57 | 165 | 9.6 | 15.6 | 0.00 | 0.00 | 0.00 | 80 | 1020.1 |
| 20260906055551 | 57 | 179 | 7.8 | 14.8 | 0.00 | 0.00 | 0.00 | 80 | 1020.0 |
| 20260906055051 | 57 | 185 | 7.8 | 13.0 | 0.00 | 0.00 | 0.00 | 81 | 1020.0 |
| 20260906054551 | 56 | 148 | 8.7 | 13.9 | 0.00 | 0.00 | 0.00 | 81 | 1020.2 |
| 20260906053550 | 56 | 221 | 4.3 | 10.4 | 0.00 | 0.00 | 0.00 | 82 | 1020.2 |
| 20260906053050 | 56 | 171 | 6.1 | 9.6 | 0.00 | 0.00 | 0.00 | 82 | 1020.4 |
| 20260906052552 | 56 | 172 | 4.3 | 9.6 | 0.00 | 0.00 | 0.00 | 82 | 1020.4 |
| 20260906052050 | 56 | 189 | 4.3 | 13.0 | 0.00 | 0.00 | 0.00 | 83 | 1020.5 |
| 20260906051550 | 56 | 179 | 6.1 | 14.8 | 0.00 | 0.00 | 0.00 | 83 | 1020.6 |
| 20260906051051 | 55 | 157 | 2.6 | 14.8 | 0.00 | 0.00 | 0.00 | 83 | 1020.6 |
| 20260906050550 | 55 | 192 | 3.5 | 12.2 | 0.00 | 0.00 | 0.00 | 83 | 1020.6 |
| 20260906050051 | 55 | 164 | 2.6 | 7.0 | 0.00 | 0.00 | 0.00 | 83 | 1020.6 |
| 20260906045550 | 55 | 182 | 2.6 | 7.8 | 0.00 | 0.00 | 0.00 | 83 | 1020.7 |
| 20260906045048 | 55 | 193 | 2.6 | 7.8 | 0.00 | 0.00 | 0.00 | 83 | 1020.8 |
| 20260906044050 | 55 | 125 | 4.3 | 10.4 | 0.00 | 0.00 | 0.00 | 84 | 1020.9 |
| 20260906043550 | 55 | 204 | 4.3 | 7.0 | 0.00 | 0.00 | 0.00 | 84 | 1020.9 |
| 20260906043050 | 55 | 185 | 2.6 | 6.1 | 0.00 | 0.00 | 0.00 | 85 | 1021.0 |
| 20260906042551 | 55 | 123 | 2.6 | 6.1 | 0.00 | 0.00 | 0.00 | 85 | 1021.0 |
| 20260906042051 | 55 | 185 | 2.6 | 7.0 | 0.00 | 0.00 | 0.00 | 85 | 1021.1 |
| 20260906041550 | 55 | 197 | 3.5 | 7.0 | 0.00 | 0.00 | 0.00 | 85 | 1021.2 |
| 20260906041051 | 54 | 235 | 2.6 | 9.6 | 0.00 | 0.00 | 0.00 | 86 | 1021.2 |
| 20260906040533 | 54 | 178 | 4.3 | 12.2 | 0.00 | 0.00 | 0.00 | 86 | 1021.2 |
| 20260906040034 | 54 | 258 | 5.2 | 12.2 | 0.00 | 0.00 | 0.00 | 86 | 1021.3 |
| 20260906035033 | 54 | 224 | 5.2 | 9.6 | 0.00 | 0.00 | 0.00 | 86 | 1021.3 |
| 20260906034531 | 54 | 278 | 2.6 | 12.2 | 0.00 | 0.00 | 0.00 | 86 | 1021.3 |
| 20260906034032 | 54 | 272 | 1.7 | 12.2 | 0.00 | 0.00 | 0.00 | 86 | 1021.2 |
| 20260906033531 | 54 | 262 | 1.7 | 7.0 | 0.00 | 0.00 | 0.00 | 85 | 1021.2 |
| 20260906033030 | 54 | 200 | 3.5 | 7.0 | 0.00 | 0.00 | 0.00 | 84 | 1021.3 |
| 20260906032537 | 54 | 196 | 1.7 | 7.0 | 0.00 | 0.00 | 0.00 | 84 | 1021.5 |
| 20260906032028 | 54 | 275 | 0.9 | 7.0 | 0.00 | 0.00 | 0.00 | 84 | 1021.5 |
| 20260906031532 | 55 | 221 | 0.0 | 6.1 | 0.00 | 0.00 | 0.00 | 84 | 1021.5 |
| 20260906031007 | 55 | 252 | 0.0 | 5.2 | 0.00 | 0.00 | 0.00 | 84 | 1021.5 |
| 20260906030512 | 55 | 204 | 2.6 | 9.6 | 0.00 | 0.00 | 0.00 | 84 | 1021.7 |
| 20260906030013 | 55 | 252 | 3.5 | 13.0 | 0.00 | 0.00 | 0.00 | 84 | 1021.7 |
| 20260906024953 | 55 | 189 | 5.2 | 11.3 | 0.00 | 0.00 | 0.00 | 85 | 1021.9 |
| 20260906024448 | 55 | 220 | 5.2 | 9.6 | 0.00 | 0.00 | 0.00 | 84 | 1022.0 |
| 20260906023949 | 55 | 196 | 5.2 | 9.6 | 0.00 | 0.00 | 0.00 | 84 | 1022.2 |
| 20260906023448 | 55 | 221 | 3.5 | 7.0 | 0.00 | 0.00 | 0.00 | 84 | 1022.2 |
| 20260906022936 | 55 | 244 | 3.5 | 7.8 | 0.00 | 0.00 | 0.00 | 84 | 1022.2 |
| 20260906022422 | 55 | 206 | 4.3 | 7.8 | 0.00 | 0.00 | 0.00 | 84 | 1022.2 |
| 20260906021908 | 55 | 207 | 1.7 | 7.8 | 0.00 | 0.00 | 0.00 | 84 | 1022.3 |
| 20260906021404 | 54 | 183 | 3.5 | 10.4 | 0.00 | 0.00 | 0.00 | 85 | 1022.2 |
| 20260906020903 | 54 | 216 | 4.3 | 10.4 | 0.00 | 0.00 | 0.00 | 85 | 1022.1 |
| 20260906020404 | 54 | 200 | 5.2 | 10.4 | 0.00 | 0.00 | 0.00 | 85 | 1022.3 |
| 20260906015352 | 54 | 188 | 3.5 | 10.4 | 0.00 | 0.00 | 0.00 | 85 | 1022.3 |
| 20260906014348 | 54 | 197 | 5.2 | 9.6 | 0.00 | 0.00 | 0.00 | 84 | 1022.6 |
| 20260906013850 | 54 | 176 | 4.3 | 9.6 | 0.00 | 0.00 | 0.00 | 84 | 1022.6 |
| 20260906012844 | 54 | 179 | 3.5 | 9.6 | 0.00 | 0.00 | 0.00 | 83 | 1022.8 |
| 20260906012334 | 54 | 207 | 3.5 | 9.6 | 0.00 | 0.00 | 0.00 | 83 | 1022.8 |
| 20260906011834 | 54 | 183 | 3.5 | 9.6 | 0.00 | 0.00 | 0.00 | 83 | 1023.0 |
| 20260906011315 | 54 | 203 | 3.5 | 7.8 | 0.00 | 0.00 | 0.00 | 83 | 1023.1 |
| 20260906010807 | 54 | 190 | 5.2 | 7.8 | 0.00 | 0.00 | 0.00 | 83 | 1023.1 |
| 20260906010304 | 54 | 186 | 5.2 | 9.6 | 0.00 | 0.00 | 0.00 | 83 | 1023.2 |
| 20260906005806 | 54 | 180 | 4.3 | 12.2 | 0.00 | 0.00 | 0.00 | 83 | 1023.2 |
| 20260906005306 | 54 | 221 | 6.1 | 12.2 | 0.00 | 0.00 | 0.00 | 84 | 1023.1 |
| 20260906004803 | 53 | 190 | 6.1 | 12.2 | 0.00 | 0.00 | 0.00 | 86 | 1023.3 |
| 20260906004252 | 53 | 179 | 5.2 | 10.4 | 0.00 | 0.00 | 0.00 | 86 | 1023.4 |
| 20260906003748 | 53 | 190 | 5.2 | 13.0 | 0.00 | 0.00 | 0.00 | 87 | 1023.4 |
| 20260906003248 | 52 | 200 | 6.1 | 13.0 | 0.00 | 0.00 | 0.00 | 88 | 1023.3 |
| 20260906002733 | 52 | 196 | 3.5 | 7.0 | 0.00 | 0.00 | 0.00 | 87 | 1023.4 |
| 20260906001732 | 51 | 176 | 2.6 | 6.1 | 0.00 | 0.00 | 0.00 | 87 | 1023.4 |
| 20260906001230 | 51 | 195 | 1.7 | 5.2 | 0.00 | 0.00 | 0.00 | 87 | 1023.4 |
| 20260906000732 | 51 | 224 | 1.7 | 4.3 | 0.00 | 0.00 | 0.00 | 87 | 1023.5 |
| 20260905235202 | 51 | 224 | 0.9 | 3.5 | 0.00 | 0.00 | 0.00 | 86 | 1023.6 |
| 20260905234704 | 52 | 224 | 0.9 | 3.5 | 0.00 | 0.00 | 0.00 | 85 | 1023.5 |
| 20260905234159 | 52 | 224 | 1.7 | 3.5 | 0.00 | 0.00 | 0.00 | 85 | 1023.5 |
| 20260905233648 | 52 | 248 | 1.7 | 3.5 | 0.00 | 0.00 | 0.00 | 85 | 1023.5 |
| 20260905233149 | 52 | 248 | 0.0 | 1.7 | 0.00 | 0.00 | 0.00 | 84 | 1023.6 |
| 20260905232649 | 52 | 248 | 0.0 | 1.7 | 0.00 | 0.00 | 0.00 | 84 | 1023.7 |
| 20260905232151 | 53 | 248 | 0.0 | 1.7 | 0.00 | 0.00 | 0.00 | 83 | 1023.8 |
| 20260905231649 | 53 | 248 | 0.0 | 1.7 | 0.00 | 0.00 | 0.00 | 83 | 1023.8 |
| 20260905231147 | 53 | 248 | 0.0 | 2.6 | 0.00 | 0.00 | 0.00 | 83 | 1023.9 |
| 20260905230647 | 54 | 248 | 0.0 | 2.6 | 0.00 | 0.00 | 0.00 | 83 | 1024.0 |
| 20260905230149 | 54 | 248 | 0.9 | 2.6 | 0.00 | 0.00 | 0.00 | 82 | 1023.9 |
| 20260905225648 | 54 | 248 | 0.0 | 2.6 | 0.00 | 0.00 | 0.00 | 82 | 1023.9 |
| 20260905225149 | 54 | 248 | 0.0 | 3.5 | 0.00 | 0.00 | 0.00 | 81 | 1023.8 |
| 20260905224647 | 55 | 248 | 0.0 | 3.5 | 0.00 | 0.00 | 0.00 | 81 | 1023.8 |
| 20260905224149 | 55 | 248 | 1.7 | 4.3 | 0.00 | 0.00 | 0.00 | 81 | 1023.8 |
| 20260905223648 | 55 | 248 | 1.7 | 4.3 | 0.00 | 0.00 | 0.00 | 81 | 1023.8 |
| 20260905223153 | 55 | 248 | 0.9 | 3.5 | 0.00 | 0.00 | 0.00 | 81 | 1023.8 |
| 20260905222634 | 55 | 248 | 0.0 | 2.6 | 0.00 | 0.00 | 0.00 | 81 | 1024.0 |
| 20260905221133 | 56 | 234 | 3.5 | 7.8 | 0.00 | 0.00 | 0.00 | 80 | 1024.0 |
| 20260905220635 | 56 | 230 | 5.2 | 7.8 | 0.00 | 0.00 | 0.00 | 80 | 1024.0 |
| 20260905220133 | 56 | 266 | 2.6 | 5.2 | 0.00 | 0.00 | 0.00 | 80 | 1024.1 |
| 20260905215632 | 56 | 244 | 1.7 | 3.5 | 0.00 | 0.00 | 0.00 | 79 | 1024.1 |
| 20260905215134 | 57 | 244 | 0.9 | 3.5 | 0.00 | 0.00 | 0.00 | 79 | 1024.2 |
| 20260905214631 | 57 | 244 | 0.0 | 3.5 | 0.00 | 0.00 | 0.00 | 79 | 1024.1 |
| 20260905214131 | 57 | 244 | 0.0 | 3.5 | 0.00 | 0.00 | 0.00 | 78 | 1024.1 |
| 20260905213611 | 57 | 244 | 0.9 | 3.5 | 0.00 | 0.00 | 0.00 | 78 | 1024.1 |
| 20260905213108 | 58 | 244 | 0.0 | 3.5 | 0.00 | 0.00 | 0.00 | 78 | 1024.2 |
| 20260905212604 | 58 | 244 | 0.0 | 3.5 | 0.00 | 0.00 | 0.00 | 78 | 1024.3 |
| 20260905211607 | 58 | 245 | 2.6 | 6.1 | 0.00 | 0.00 | 0.00 | 77 | 1024.3 |
| 20260905211105 | 58 | 269 | 2.6 | 6.1 | 0.00 | 0.00 | 0.00 | 77 | 1024.1 |
| 20260905210050 | 58 | 214 | 0.9 | 6.1 | 0.00 | 0.00 | 0.00 | 77 | 1024.1 |
| 20260905205549 | 59 | 223 | 1.7 | 7.8 | 0.00 | 0.00 | 0.00 | 77 | 1023.8 |
| 20260905204550 | 59 | 207 | 3.5 | 9.6 | 0.00 | 0.00 | 0.00 | 77 | 1023.7 |
| 20260905203049 | 59 | 228 | 4.3 | 11.3 | 0.00 | 0.00 | 0.00 | 77 | 1023.3 |
| 20260905202549 | 59 | 203 | 6.1 | 11.3 | 0.00 | 0.00 | 0.00 | 78 | 1023.2 |
| 20260905202050 | 59 | 166 | 3.5 | 7.0 | 0.00 | 0.00 | 0.00 | 78 | 1023.5 |
| 20260905201049 | 60 | 144 | 3.5 | 9.6 | 0.00 | 0.00 | 0.00 | 78 | 1023.7 |
| 20260905200049 | 60 | 241 | 5.2 | 9.6 | 0.00 | 0.00 | 0.00 | 78 | 1023.7 |
| 20260905195548 | 60 | 172 | 3.5 | 7.0 | 0.00 | 0.00 | 0.00 | 78 | 1023.8 |
| 20260905195049 | 60 | 206 | 2.6 | 7.0 | 0.00 | 0.00 | 0.00 | 78 | 1023.7 |
| 20260905194548 | 60 | 230 | 2.6 | 7.0 | 0.00 | 0.00 | 0.00 | 78 | 1023.8 |
| 20260905194050 | 60 | 169 | 2.6 | 7.8 | 0.00 | 0.00 | 0.00 | 77 | 1023.7 |
| 20260905193550 | 60 | 207 | 3.5 | 11.3 | 0.00 | 0.00 | 0.00 | 77 | 1023.7 |
| 20260905193049 | 60 | 238 | 7.0 | 11.3 | 0.00 | 0.00 | 0.00 | 77 | 1023.5 |
| 20260905192550 | 60 | 204 | 4.3 | 7.0 | 0.00 | 0.00 | 0.00 | 76 | 1023.4 |